Location: Observatoire
(46.1952°N, 5.3391°E)
Time: 14:25:48
(UTC+01:00)

A-11 Canister half - Pass Details

Date: 19 February 2026
Orbit: 1513 x 1687 km, 47.2° (Epoch: 11 March)

Event Time Altitude Azimuth Distance (km) Brightness Sun altitude
Rises 19:00:06 0° 187° (S) 4,920 11.8 -9.3°
Reaches altitude 10° 19:04:14 10° 173° (S) 3,941 11.1 -10.0°
Maximum altitude 19:11:18 22° 128° (SE) 3,094 10.2 -11.2°
Enters shadow 19:16:33 14° 92° (E) 3,583 10.3 -12.1°
Drops below altitude 10° 19:18:19 10° 83° (E) 3,924 - -12.4°
Sets 19:22:23 0° 69° (ENE) 4,894 - -13.1°
